Home   Weather   Imperatriz   Past weeks
Flag for Brazil

Past Weather in Imperatriz, Maranhão, Brazil — Yesterday and Last 2 Weeks

Now
77 °F

Clear.


Feels Like: 78 °F
Forecast: 91 / 67 °F
Wind: 2 mph from Southeast

Location: Imperatriz Airport

Current Time: Jun 18, 2019 at 1:59:13 am

Latest Report: Jun 18, 2019 at 1:00 am


Visibility: 10 mi

Pressure: 29.95 "Hg

Humidity: 94%

Dew Point: 75 °F

Location of ImperatrizLocation

Past Weather in Imperatriz — Graph

°F

Imperatriz Temperature Yesterday

Maximum temperature yesterday: 93 °F (at 12:00 pm)
Minimum temperature yesterday: 73 °F (at 4:00 am)
Average temperature yesterday: 83 °F

High & Low Weather Summary for the Past Weeks

 TemperatureHumidityPressure
High97 °F (Jun 4, 3:00 pm)100% (Jun 3, 7:00 am)30.01 "Hg (Jun 3, 7:00 am)
Low72 °F (Jun 5, 5:00 am)24% (Jun 16, 1:00 pm)29.80 "Hg (Jun 2, 5:00 pm)
Average83 °F70%29.92 "Hg
* Reported Jun 2 5:00 pm — Jun 17 5:00 pm, Imperatriz. Weather by CustomWeather, © 2019

Note: Actual official high and low records may vary slightly from our data, if they occured in-between our weather recording intervals... More about our weather records

Advertising

Imperatriz Weather History for the Previous 24 Hours

Scroll right to see more
 ConditionsComfort  
Time TempWeatherWind HumidityBarometerVisibility
5:00 pm
Mon, Jun 17
90 °FSunny.5 mph46%29.89 "Hg10 mi
4:00 pm91 °FPassing clouds.5 mph44%29.89 "HgN/A
3:00 pm91 °FScattered clouds.5 mph44%29.89 "HgN/A
2:00 pm91 °FScattered clouds.5 mph44%29.92 "HgN/A
1:00 pm93 °FScattered clouds.9 mph39%29.95 "HgN/A
12:00 pm93 °FPassing clouds.2 mph41%29.95 "HgN/A
11:00 am90 °FPassing clouds.3 mph49%29.98 "HgN/A
10:00 am86 °FSunny.5 mph59%29.98 "Hg10 mi
9:00 am82 °FSunny.2 mph70%29.98 "Hg10 mi
8:00 am77 °FSunny.2 mph79%29.98 "Hg10 mi
7:00 am73 °FSunny.3 mph89%29.95 "Hg10 mi
6:00 am73 °FClear.No wind94%29.92 "Hg10 mi
5:00 am73 °FClear.No wind94%29.92 "Hg10 mi
4:00 am73 °FClear.2 mph94%29.89 "Hg10 mi
3:00 am75 °FClear.No wind89%29.92 "Hg10 mi
2:00 am75 °FClear.No wind94%29.92 "Hg10 mi
1:00 am75 °FClear.No wind89%29.95 "Hg10 mi
Weather by CustomWeather, © 2019

See weather overview